TimeCDT,TemperatureF,Dew PointF,Humidity,Sea Level PressureIn,VisibilityMPH,Wind Direction,Wind SpeedMPH,Gust SpeedMPH,PrecipitationIn,Events,Conditions,WindDirDegrees,DateUTC
12:15 AM,28.4,21.2,74,30.05,10.0,NE,3.5,-,N/A,,Overcast,50,2013-03-23 05:15:00
12:35 AM,28.4,21.2,74,30.05,10.0,Calm,Calm,-,N/A,,Overcast,0,2013-03-23 05:35:00
12:55 AM,28.4,21.2,74,30.06,10.0,Calm,Calm,-,N/A,,Overcast,0,2013-03-23 05:55:00
1:15 AM,28.4,21.2,74,30.06,10.0,Calm,Calm,-,N/A,,Overcast,0,2013-03-23 06:15:00
1:35 AM,28.4,21.2,74,30.06,10.0,NE,5.8,-,N/A,,Overcast,50,2013-03-23 06:35:00
1:55 AM,28.4,21.2,74,30.07,10.0,NE,5.8,-,N/A,,Overcast,50,2013-03-23 06:55:00
2:15 AM,28.4,21.2,74,30.07,10.0,NE,4.6,-,N/A,,Overcast,40,2013-03-23 07:15:00
2:35 AM,28.4,21.2,74,30.06,10.0,NNE,4.6,-,N/A,,Overcast,30,2013-03-23 07:35:00
2:55 AM,26.6,21.2,80,30.06,10.0,NE,6.9,-,N/A,,Overcast,50,2013-03-23 07:55:00
3:15 AM,26.6,21.2,80,30.06,10.0,NE,4.6,-,N/A,,Overcast,50,2013-03-23 08:15:00
3:35 AM,26.6,21.2,80,30.06,10.0,NE,8.1,-,N/A,,Overcast,50,2013-03-23 08:35:00
3:55 AM,26.6,21.2,80,30.06,10.0,NNE,6.9,-,N/A,,Overcast,30,2013-03-23 08:55:00
4:15 AM,24.8,19.4,80,30.06,10.0,NNE,10.4,-,N/A,,Overcast,30,2013-03-23 09:15:00
4:35 AM,24.8,19.4,80,30.06,10.0,NE,10.4,-,N/A,,Scattered Clouds,40,2013-03-23 09:35:00
4:55 AM,23.0,19.4,86,30.06,10.0,NNE,8.1,-,N/A,,Scattered Clouds,30,2013-03-23 09:55:00
5:15 AM,23.0,19.4,86,30.06,10.0,NNE,6.9,-,N/A,,Overcast,30,2013-03-23 10:15:00
5:35 AM,21.2,19.4,93,30.05,10.0,NNE,6.9,-,N/A,,Mostly Cloudy,30,2013-03-23 10:35:00
6:15 AM,21.2,17.6,86,30.07,10.0,Calm,Calm,-,N/A,,Clear,0,2013-03-23 11:15:00
6:35 AM,17.6,15.8,93,30.09,10.0,Calm,Calm,-,N/A,,Clear,0,2013-03-23 11:35:00
6:55 AM,17.6,15.8,93,30.10,10.0,Calm,Calm,-,N/A,,Mostly Cloudy,0,2013-03-23 11:55:00
7:15 AM,15.8,14.0,93,30.10,10.0,Calm,Calm,-,N/A,,Mostly Cloudy,0,2013-03-23 12:15:00
7:35 AM,17.6,15.8,93,30.11,10.0,Calm,Calm,-,N/A,,Scattered Clouds,0,2013-03-23 12:35:00
7:55 AM,15.8,14.0,93,30.12,10.0,Calm,Calm,-,N/A,,Scattered Clouds,0,2013-03-23 12:55:00
8:15 AM,17.6,15.8,93,30.11,10.0,Calm,Calm,-,N/A,,Mostly Cloudy,0,2013-03-23 13:15:00
8:35 AM,21.2,19.4,93,30.11,10.0,Calm,Calm,-,N/A,,Overcast,0,2013-03-23 13:35:00
8:55 AM,24.8,19.4,80,30.11,10.0,ENE,5.8,-,N/A,,Overcast,70,2013-03-23 13:55:00
9:15 AM,24.8,19.4,80,30.11,10.0,ENE,5.8,-,N/A,,Overcast,60,2013-03-23 14:15:00
9:35 AM,26.6,21.2,80,30.11,10.0,ENE,5.8,-,N/A,,Overcast,60,2013-03-23 14:35:00
9:55 AM,26.6,21.2,80,30.13,10.0,NNE,3.5,-,N/A,,Overcast,20,2013-03-23 14:55:00
10:15 AM,26.6,21.2,80,30.13,10.0,NE,3.5,-,N/A,,Overcast,50,2013-03-23 15:15:00
10:35 AM,26.6,21.2,80,30.12,10.0,East,4.6,-,N/A,,Overcast,80,2013-03-23 15:35:00
10:55 AM,28.4,21.2,74,30.11,10.0,ENE,5.8,-,N/A,,Overcast,70,2013-03-23 15:55:00
11:15 AM,28.4,21.2,74,30.13,10.0,Calm,Calm,-,N/A,,Overcast,0,2013-03-23 16:15:00
11:35 AM,28.4,19.4,69,30.13,10.0,NE,3.5,-,N/A,,Overcast,40,2013-03-23 16:35:00
11:55 AM,28.4,21.2,74,30.12,10.0,North,5.8,-,N/A,,Overcast,10,2013-03-23 16:55:00
12:15 PM,30.2,19.4,64,30.11,10.0,North,8.1,-,N/A,,Overcast,360,2013-03-23 17:15:00
12:35 PM,30.2,19.4,64,30.11,10.0,NNE,5.8,-,N/A,,Overcast,30,2013-03-23 17:35:00
12:55 PM,30.2,19.4,64,30.11,10.0,NNW,5.8,-,N/A,,Overcast,340,2013-03-23 17:55:00
1:15 PM,30.2,19.4,64,30.10,10.0,NE,6.9,-,N/A,,Mostly Cloudy,40,2013-03-23 18:15:00
1:35 PM,32.0,21.2,64,30.10,10.0,ENE,5.8,-,N/A,,Mostly Cloudy,60,2013-03-23 18:35:00
1:55 PM,32.0,19.4,60,30.10,10.0,North,4.6,-,N/A,,Mostly Cloudy,10,2013-03-23 18:55:00
2:15 PM,33.8,21.2,60,30.10,10.0,North,6.9,-,N/A,,Scattered Clouds,10,2013-03-23 19:15:00
2:35 PM,33.8,21.2,60,30.09,10.0,NNE,4.6,-,N/A,,Mostly Cloudy,20,2013-03-23 19:35:00
2:55 PM,33.8,19.4,56,30.09,10.0,NNE,3.5,-,N/A,,Scattered Clouds,30,2013-03-23 19:55:00
3:15 PM,33.8,19.4,56,30.08,10.0,Calm,Calm,-,N/A,,Clear,0,2013-03-23 20:15:00
3:35 PM,35.6,19.4,52,30.08,10.0,East,3.5,-,N/A,,Scattered Clouds,90,2013-03-23 20:35:00
3:55 PM,35.6,19.4,52,30.07,10.0,Calm,Calm,-,N/A,,Mostly Cloudy,0,2013-03-23 20:55:00
4:15 PM,35.6,19.4,52,30.07,10.0,NNE,4.6,-,N/A,,Mostly Cloudy,20,2013-03-23 21:15:00
4:35 PM,35.6,21.2,56,30.06,10.0,NE,5.8,-,N/A,,Scattered Clouds,50,2013-03-23 21:35:00
4:55 PM,35.6,21.2,56,30.06,10.0,NE,9.2,-,N/A,,Clear,50,2013-03-23 21:55:00
5:15 PM,35.6,21.2,56,30.07,10.0,Calm,Calm,-,N/A,,Scattered Clouds,0,2013-03-23 22:15:00
5:35 PM,35.6,21.2,56,30.07,10.0,NNE,10.4,-,N/A,,Mostly Cloudy,20,2013-03-23 22:35:00
5:55 PM,33.8,21.2,60,30.07,10.0,NNE,10.4,-,N/A,,Mostly Cloudy,20,2013-03-23 22:55:00
6:15 PM,33.8,21.2,60,30.07,10.0,NE,8.1,-,N/A,,Scattered Clouds,50,2013-03-23 23:15:00
6:35 PM,33.8,21.2,60,30.07,10.0,NNE,9.2,-,N/A,,Clear,30,2013-03-23 23:35:00
6:55 PM,32.0,21.2,64,30.07,10.0,NNE,8.1,-,N/A,,Clear,20,2013-03-23 23:55:00
7:15 PM,32.0,21.2,64,30.08,10.0,NE,6.9,-,N/A,,Mostly Cloudy,40,2013-03-24 00:15:00
7:35 PM,32.0,21.2,64,30.08,10.0,NE,4.6,-,N/A,,Overcast,40,2013-03-24 00:35:00
7:55 PM,30.2,21.2,69,30.08,10.0,NE,6.9,-,N/A,,Mostly Cloudy,40,2013-03-24 00:55:00
8:15 PM,30.2,21.2,69,30.10,10.0,Calm,Calm,-,N/A,,Mostly Cloudy,0,2013-03-24 01:15:00
8:35 PM,30.2,23.0,75,30.09,10.0,NNE,4.6,-,N/A,,Overcast,30,2013-03-24 01:35:00
8:55 PM,30.2,21.2,69,30.09,10.0,NNE,6.9,-,N/A,,Overcast,20,2013-03-24 01:55:00
9:15 PM,30.2,21.2,69,30.10,10.0,North,4.6,-,N/A,,Overcast,10,2013-03-24 02:15:00
9:35 PM,30.2,21.2,69,30.10,10.0,North,5.8,-,N/A,,Overcast,10,2013-03-24 02:35:00
9:55 PM,30.2,21.2,69,30.09,10.0,North,3.5,-,N/A,,Overcast,10,2013-03-24 02:55:00
10:15 PM,28.4,21.2,74,30.09,10.0,NNE,4.6,-,N/A,,Mostly Cloudy,20,2013-03-24 03:15:00
10:35 PM,28.4,21.2,74,30.10,10.0,Calm,Calm,-,N/A,,Mostly Cloudy,0,2013-03-24 03:35:00
10:55 PM,28.4,21.2,74,30.10,10.0,Calm,Calm,-,N/A,,Overcast,0,2013-03-24 03:55:00
11:15 PM,28.4,21.2,74,30.10,10.0,NE,4.6,-,N/A,,Overcast,40,2013-03-24 04:15:00
11:35 PM,30.2,21.2,69,30.09,10.0,NE,5.8,-,N/A,,Overcast,50,2013-03-24 04:35:00
11:55 PM,30.2,21.2,69,30.09,10.0,NE,6.9,-,N/A,,Overcast,50,2013-03-24 04:55:00